Regional Weather Roundup
Issued by NWS Charleston, SC

Current Version | Previous Version | Text Only | Print | Product List | Glossary Off
Versions: 1 2 3 4 5 6 7 8 9 10 11 12 13 14 15 16 17 18 19 20 21 22 23 24 25 26 27 28 29 30 31 32 33 34 35 36 37 38 39 40 41 42 43 44 45 46 47 48 49 50

000
ASUS42 KCHS 312313
RWRCHS

REGIONAL WEATHER ROUNDUP
NATIONAL WEATHER SERVICE CHARLESTON SC
700 PM EDT TUE MAY 31 2016

NOTE: "FAIR" INDICATES FEW OR NO CLOUDS BELOW 12,000 FEET WITH NO
SIGNIFICANT WEATHER AND/OR OBSTRUCTIONS TO VISIBILITY.

NOT ALL STATIONS ARE QUALITY CONTROLLED. USE DATA WITH CAUTION...
ESPECIALLY DEWPOINT OBSERVATIONS.

SCZ027-030-031-034>040-042>050-010000-
...SOUTHEAST SOUTH CAROLINA...

CITY           SKY/WX    TMP DP  RH WIND       PRES   REMARKS
N CHARLESTON   MOSUNNY   83  71  67 S7        29.88R
WATERFRONT PRK   N/A     80  73  79 SE5       29.86F
MOUNT PLEASANT FAIR      77  73  88 E8        29.90R
JOHNS ISLAND   FAIR      81  73  78 VRB5      29.88F
PINOPOLIS        N/A     86  73  66 E8        29.79F HX  93
MONCKS CORNER  MOCLDY    81  68  65 E5        29.88R
SUMMERVILLE    FAIR      88  70  55 N6        29.88S HX  92
BEAUFORT MCAS  SUNNY     88  68  51 N5        29.87F HX  91
BEAUFORT ARPT  FAIR      86  66  51 N6        29.86F
HILTON HEAD IS SUNNY     86  73  66 S9        29.89S HX  93
WALTERBORO     CLEAR     88  64  45 CALM      29.88F
ALLENDALE      FAIR      86  70  58 CALM      29.87S HX  90

...SOUTHERN MIDLANDS AND PEE DEE...

CITY           SKY/WX    TMP DP  RH WIND       PRES   REMARKS
GEORGETOWN     MOCLDY    72  70  94 CALM      29.90R
KINGSTREE      FAIR      84  64  51 N3        29.88R
ORANGEBURG     MOSUNNY   89  68  49 CALM      29.87F HX  93
BARNWELL       FAIR      91  72  52 CALM      29.88S HX  98
AIKEN          FAIR      86  63  45 N3        29.92S
MANNING        FAIR      86  68  54 N5        29.87F
COLUMBIA       TSTM      79  68  69 N8G28     29.89R
SUMTER         MOSUNNY   85  69  57 NE12      29.86S
FLORENCE       MOSUNNY   84  69  60 NE9       29.90R
MYRTLE BEACH   MOSUNNY   75  66  73 N8        29.91R
N MYRTLE BEACH CLOUDY    77  72  84 N8        29.88R

$$

GAZ063-065-086>088-099>101-113>116-118-119-134>141-150-010000-
...SOUTHEAST GEORGIA...

CITY           SKY/WX    TMP DP  RH WIND       PRES   REMARKS
SAVANNAH ARPT  PTSUNNY   83  72  69 S10       29.89R
HUNTER AAF     MOSUNNY   80  73  80 S5        29.87R
FORT STEWART   MOSUNNY   82  67  59 SE3       29.87R
STATESBORO     SUNNY     89  71  54 E3        29.88R HX  96
SYLVANIA       CLEAR     90  70  52 E5        29.89R HX  95
CLAXTON        FAIR      90  70  52 N5        29.88R HX  95

...CSRA...CENTRAL AND FAR SOUTHEAST GEORGIA...

CITY           SKY/WX    TMP DP  RH WIND       PRES   REMARKS
THOMSON        SUNNY     90  68  47 NE6       29.92S HX  94
AUGUSTA-BUSH   MOSUNNY   88  66  48 CALM      29.86F HX  90
AUGUSTA-DANIEL SUNNY     88  66  48 SE5       29.89S HX  90
SWAINSBORO     FAIR      90  64  43 E5        29.89R HX  91
VIDALIA        CLOUDY    88  68  51 S3        29.88R HX  91
EASTMAN        FAIR      91  62  36 SE5       29.90R HX  91
HAZLEHURST     FAIR      92  57  30 CALM      29.87R HX  91
ALMA           MOSUNNY   84  64  50 SE3       29.88R
WAYCROSS       MOSUNNY   87  68  52 E12G17    29.88S HX  90
JESUP          FAIR      72  63  73 S6        29.91R
BAXLEY         FAIR      86  68  54 E7        29.88R
BRUNSWICK      CLOUDY    86  75  70 SE8       29.91R THUNDER HX  95
SAINT SIMONS   CLOUDY    79  73  82 SE8       29.90R

$$

SCZ027-028-034-036>038-045-046-048>050-GAZ119-141-010000-
...LAKE AND SUPPLEMENTAL COASTAL OBSERVATIONS...

STATION/POSITION TIME  TEMP    WIND        PRES    WAVE   SWELL
                       AIR SEA DIR/SP/G            HT/PER HT/PER/DIR
                 (UTC) (F)     (DEG/KT/KT) (MB)    (FT/S) (FT/S/D)
WINYAH BAY       2145   72     330/  4     1011.0
LAKE MURRAY      2200   83     220/  2/  2 1011.2F
ACE BASIN NERRS  NOT AVBL
FORT PULASKI     2200      77              1012.4F
SAPELO ISLAND    2200   79      90/  6     1012.0F

$$

ANZ835-935-AMZ111-154-330-350-352-354-370-450-454-472-010000-
...C-MAN AND BUOY OBSERVATIONS...

STATION/POSITION TIME  TEMP    WIND        PRES    WAVE   SWELL
                       AIR SEA DIR/SP/G            HT/PER HT/PER/DIR
                 (UTC) (F)     (DEG/KT/KT) (MB)    (FT/S) (FT/S/D)
BUOY 41004       2250   76 78  260/  8/ 10 1011.7R   3/ 8   3/ 8
BUOY 41008       2250   76 78  110/  8/ 10 1012.2R   2/ 8   2/110/ 8
FOLLY BEACH CMAN 2300   78     190/  7/  8 1012.3R
CAPERS NEARSHORE 2208   76 77   60/ 10/ 14 1010.7F
FRIPP NEARSHORE  2208   78 78  190/  8/ 10 1011.2F


STATION/POSITION TIME  TEMP    WIND        PRES    WAVE   SWELL
                       AIR SEA DIR/SP/G            HT/PER HT/PER/DIR
                 (UTC) (F)     (DEG/KT/KT) (MB)    (FT/S) (FT/S/D)
5E ST. MARYS GA  2301      80                N/A     2/ 9
FRYING PAN BUOY  2200   77 80   80/  4/  8 1009.5F
BUOY 41025       2150   78 81  170/  4/  6 1013.1    4/ 8   3/150/ 8
CAPE LOOKOUT NC  2200   76      50/ 11/ 12 1012.0F
BUOY 41002       2250   77 77  150/ 14/ 16 1014.1R   4/ 8   3/100/ 8
BUOY 41010       2220   80 80  200/  8/  8 1013.3S
ST AUGUSTINE FL  2300   80 81   70/  1/  2 1013.2R


$$



USA.gov is the U.S. government's official web portal to all federal, state and local government web resources and services.